Time,TemperatureF,DewpointF,PressureIn,WindDirection,WindDirectionDegrees,WindSpeedMPH,WindSpeedGustMPH,Humidity,HourlyPrecipIn,Conditions,Clouds,dailyrainin,SoftwareType,DateUTC
2013-03-01 13:33:00,31.5,15.8,28.82,NNE,22,18.4,18.4,52,0.00,CLR,,0.16,WeatherDisplay:10.37,2013-03-01 18:33:00,
2013-03-01 13:38:00,26.4,9.4,29.03,NNE,22,16.1,16.1,48,0.00,CLR,,0.16,WeatherDisplay:10.37,2013-03-01 18:38:00,
2013-03-01 13:43:00,26.4,9.4,29.03,NNE,22,10.4,10.4,48,0.00,CLR,,0.16,WeatherDisplay:10.37,2013-03-01 18:43:00,
2013-03-01 13:48:00,26.6,9.5,29.03,NNE,22,12.7,12.7,48,0.00,CLR,,0.16,WeatherDisplay:10.37,2013-03-01 18:48:00,
2013-03-01 13:53:00,26.4,9.4,29.03,NNE,22,13.2,13.2,48,0.00,CLR,,0.16,WeatherDisplay:10.37,2013-03-01 18:53:00,
2013-03-01 13:54:00,26.4,9.4,29.03,NNW,338,12.7,12.7,48,0.00,CLR,,0.16,WeatherDisplay:10.37,2013-03-01 18:54:00,
2013-03-01 13:58:00,25.5,8.1,29.03,NNE,22,10.4,10.4,47,0.00,CLR,,0.16,WeatherDisplay:10.37,2013-03-01 18:58:00,
2013-03-01 13:59:00,25.5,8.1,29.03,NNE,22,10.4,10.4,47,0.00,CLR,,0.16,WeatherDisplay:10.37,2013-03-01 18:59:00,
2013-03-01 14:04:00,25.7,8.2,29.03,North,0,12.7,12.7,47,0.00,CLR,,0.16,WeatherDisplay:10.37,2013-03-01 19:04:00,
2013-03-01 14:09:00,25.5,8.1,29.03,NNE,22,12.7,12.7,47,0.00,CLR,,0.16,WeatherDisplay:10.37,2013-03-01 19:09:00,
2013-03-01 14:14:00,25.7,8.7,29.03,North,0,17.3,17.3,48,0.00,CLR,,0.16,WeatherDisplay:10.37,2013-03-01 19:14:00,
2013-03-01 14:19:00,25.5,8.5,29.03,NNE,22,13.8,13.8,48,0.00,CLR,,0.16,WeatherDisplay:10.37,2013-03-01 19:19:00,
2013-03-01 14:24:00,25.3,8.4,29.03,NNE,22,12.7,12.7,48,0.00,CLR,,0.16,WeatherDisplay:10.37,2013-03-01 19:24:00,
2013-03-01 14:29:00,25.3,8.4,29.03,North,0,19.6,19.6,48,0.00,CLR,,0.16,WeatherDisplay:10.37,2013-03-01 19:29:00,
2013-03-01 14:34:00,25.5,9.0,29.03,NNW,338,15.0,15.0,49,0.00,CLR,,0.16,WeatherDisplay:10.37,2013-03-01 19:34:00,
2013-03-01 14:39:00,25.5,9.0,29.03,NNE,22,15.0,15.0,49,0.00,CLR,,0.16,WeatherDisplay:10.37,2013-03-01 19:39:00,
2013-03-01 14:44:00,25.7,9.2,29.03,NNE,22,13.8,13.8,49,0.00,CLR,,0.16,WeatherDisplay:10.37,2013-03-01 19:44:00,
2013-03-01 14:49:00,25.5,9.0,29.03,NNE,22,12.7,12.7,49,0.00,CLR,,0.16,WeatherDisplay:10.37,2013-03-01 19:49:00,
2013-03-01 14:50:00,25.5,9.0,29.03,NNE,22,12.7,12.7,49,0.00,CLR,,0.16,WeatherDisplay:10.37,2013-03-01 19:50:00,
2013-03-01 14:54:00,25.5,9.0,29.03,NNE,22,18.4,18.4,49,0.00,CLR,,0.16,WeatherDisplay:10.37,2013-03-01 19:54:00,
2013-03-01 14:55:00,25.5,9.0,29.03,NNE,22,18.4,18.4,49,0.00,CLR,,0.16,WeatherDisplay:10.37,2013-03-01 19:55:00,
2013-03-01 14:59:00,25.5,9.0,29.03,NNE,22,12.7,12.7,49,0.00,CLR,,0.16,WeatherDisplay:10.37,2013-03-01 19:59:00,
2013-03-01 15:00:00,25.5,9.0,29.03,NNE,22,12.7,12.7,49,0.00,CLR,,0.16,WeatherDisplay:10.37,2013-03-01 20:00:00,
2013-03-01 15:04:00,25.5,9.0,29.03,NNE,22,13.8,13.8,49,0.00,CLR,,0.16,WeatherDisplay:10.37,2013-03-01 20:04:00,
2013-03-01 15:05:00,25.7,9.2,29.03,NNE,22,15.2,15.2,49,0.00,CLR,,0.16,WeatherDisplay:10.37,2013-03-01 20:05:00,
2013-03-01 15:09:00,25.7,9.2,29.03,North,0,12.7,12.7,49,0.00,CLR,,0.16,WeatherDisplay:10.37,2013-03-01 20:09:00,
2013-03-01 15:10:00,25.7,9.2,29.03,NNE,22,12.7,12.7,49,0.00,CLR,,0.16,WeatherDisplay:10.37,2013-03-01 20:10:00,
2013-03-01 15:14:00,25.3,8.8,29.03,NNE,22,12.8,12.8,49,0.00,CLR,,0.16,WeatherDisplay:10.37,2013-03-01 20:14:00,
2013-03-01 15:15:00,25.3,8.8,29.03,NNE,22,12.7,12.7,49,0.00,CLR,,0.16,WeatherDisplay:10.37,2013-03-01 20:15:00,
2013-03-01 15:20:00,25.5,9.0,29.03,NNE,22,17.3,17.3,49,0.00,CLR,,0.16,WeatherDisplay:10.37,2013-03-01 20:20:00,
2013-03-01 15:25:00,25.5,9.0,29.03,NNE,22,13.8,13.8,49,0.00,CLR,,0.16,WeatherDisplay:10.37,2013-03-01 20:25:00,
2013-03-01 15:30:00,25.5,9.0,29.03,NNE,22,15.0,15.0,49,0.00,CLR,,0.16,WeatherDisplay:10.37,2013-03-01 20:30:00,
2013-03-01 15:35:00,25.5,9.0,29.03,NNE,22,19.6,19.6,49,0.00,CLR,,0.16,WeatherDisplay:10.37,2013-03-01 20:35:00,
2013-03-01 15:36:00,25.5,9.0,29.03,North,0,19.6,19.6,49,0.00,CLR,,0.16,WeatherDisplay:10.37,2013-03-01 20:36:00,
2013-03-01 15:40:00,25.3,8.8,29.00,NNE,22,13.8,13.8,49,0.00,CLR,,0.16,WeatherDisplay:10.37,2013-03-01 20:40:00,
2013-03-01 15:41:00,25.3,8.8,29.00,NNE,22,13.8,13.8,49,0.00,CLR,,0.16,WeatherDisplay:10.37,2013-03-01 20:41:00,
2013-03-01 15:45:00,25.5,9.4,29.00,NNE,22,15.0,15.0,50,0.00,CLR,,0.16,WeatherDisplay:10.37,2013-03-01 20:45:00,
2013-03-01 15:46:00,25.5,9.4,29.00,NNE,22,15.0,15.0,50,0.00,CLR,,0.16,WeatherDisplay:10.37,2013-03-01 20:46:00,
2013-03-01 15:51:00,25.7,9.6,29.03,North,0,12.7,12.7,50,0.00,CLR,,0.16,WeatherDisplay:10.37,2013-03-01 20:51:00,
2013-03-01 15:52:00,25.7,9.6,29.03,NNE,22,12.7,12.7,50,0.00,CLR,,0.16,WeatherDisplay:10.37,2013-03-01 20:52:00,
2013-03-01 15:56:00,25.5,9.4,29.03,NNE,22,16.1,16.1,50,0.00,CLR,,0.16,WeatherDisplay:10.37,2013-03-01 20:56:00,
2013-03-01 15:57:00,25.5,9.4,29.03,NNE,22,16.1,16.1,50,0.00,CLR,,0.16,WeatherDisplay:10.37,2013-03-01 20:57:00,
2013-03-01 16:01:00,25.5,9.4,29.03,NNE,22,16.1,16.1,50,0.00,CLR,,0.16,WeatherDisplay:10.37,2013-03-01 21:01:00,
2013-03-01 16:02:00,25.7,9.6,29.03,NNE,22,16.1,16.1,50,0.00,CLR,,0.16,WeatherDisplay:10.37,2013-03-01 21:02:00,
2013-03-01 16:06:00,25.5,9.4,29.03,NNE,22,17.3,17.3,50,0.00,CLR,,0.16,WeatherDisplay:10.37,2013-03-01 21:06:00,
2013-03-01 16:07:00,25.5,9.4,29.03,North,0,11.5,11.5,50,0.00,CLR,,0.16,WeatherDisplay:10.37,2013-03-01 21:07:00,
2013-03-01 16:11:00,25.5,9.4,29.03,NNE,22,16.1,16.1,50,0.00,CLR,,0.16,WeatherDisplay:10.37,2013-03-01 21:11:00,
2013-03-01 16:12:00,25.5,9.4,29.03,NNE,22,16.1,16.1,50,0.00,CLR,,0.16,WeatherDisplay:10.37,2013-03-01 21:12:00,
2013-03-01 16:16:00,25.3,8.8,29.03,NNE,22,16.1,16.1,49,0.00,CLR,,0.16,WeatherDisplay:10.37,2013-03-01 21:16:00,
2013-03-01 16:17:00,25.3,8.8,29.03,NNE,22,16.1,16.1,49,0.00,CLR,,0.16,WeatherDisplay:10.37,2013-03-01 21:17:00,
2013-03-01 16:21:00,25.5,9.4,29.03,NNE,22,8.1,8.1,50,0.00,CLR,,0.16,WeatherDisplay:10.37,2013-03-01 21:21:00,
2013-03-01 16:22:00,25.5,9.4,29.03,NNE,22,8.1,8.1,50,0.00,CLR,,0.16,WeatherDisplay:10.37,2013-03-01 21:22:00,
2013-03-01 16:23:00,25.5,9.4,29.03,NNE,22,8.1,8.1,50,0.00,CLR,,0.16,WeatherDisplay:10.37,2013-03-01 21:23:00,
2013-03-01 16:26:00,25.5,9.4,29.03,NNE,22,11.5,11.5,50,0.00,CLR,,0.16,WeatherDisplay:10.37,2013-03-01 21:26:00,
2013-03-01 16:27:00,25.5,9.4,29.03,NNE,22,11.5,11.5,50,0.00,CLR,,0.16,WeatherDisplay:10.37,2013-03-01 21:27:00,
2013-03-01 16:28:00,25.5,9.4,29.03,NNE,22,8.1,8.1,50,0.00,CLR,,0.16,WeatherDisplay:10.37,2013-03-01 21:28:00,
2013-03-01 16:31:00,25.5,9.4,29.03,NNE,22,12.7,12.7,50,0.00,CLR,,0.16,WeatherDisplay:10.37,2013-03-01 21:31:00,
2013-03-01 16:32:00,25.5,9.4,29.03,NNE,22,12.7,12.7,50,0.00,CLR,,0.16,WeatherDisplay:10.37,2013-03-01 21:32:00,
2013-03-01 16:33:00,25.7,9.6,29.03,NNE,22,10.4,10.4,50,0.00,CLR,,0.16,WeatherDisplay:10.37,2013-03-01 21:33:00,
2013-03-01 16:37:00,25.7,9.6,29.03,NNE,22,10.4,10.9,50,0.00,CLR,,0.16,WeatherDisplay:10.37,2013-03-01 21:37:00,
2013-03-01 16:38:00,25.7,9.6,29.03,NNW,338,12.1,12.1,50,0.00,CLR,,0.16,WeatherDisplay:10.37,2013-03-01 21:38:00,
2013-03-01 16:42:00,25.5,9.4,29.03,NNE,22,16.1,16.1,50,0.00,CLR,,0.16,WeatherDisplay:10.37,2013-03-01 21:42:00,
2013-03-01 16:43:00,25.5,9.4,29.03,NNE,22,16.1,16.1,50,0.00,CLR,,0.16,WeatherDisplay:10.37,2013-03-01 21:43:00,
2013-03-01 16:47:00,25.5,9.4,29.03,NNE,22,12.8,12.8,50,0.00,CLR,,0.16,WeatherDisplay:10.37,2013-03-01 21:47:00,
2013-03-01 16:48:00,25.5,9.4,29.03,NNE,22,17.3,17.3,50,0.00,CLR,,0.16,WeatherDisplay:10.37,2013-03-01 21:48:00,
2013-03-01 16:52:00,25.3,8.8,29.03,NNE,22,13.8,13.8,49,0.00,CLR,,0.16,WeatherDisplay:10.37,2013-03-01 21:52:00,
2013-03-01 16:53:00,25.3,8.8,29.03,North,0,12.7,12.7,49,0.00,CLR,,0.16,WeatherDisplay:10.37,2013-03-01 21:53:00,
2013-03-01 16:54:00,25.5,9.4,29.03,NNE,22,12.7,12.7,50,0.00,CLR,,0.16,WeatherDisplay:10.37,2013-03-01 21:54:00,
2013-03-01 16:57:00,25.3,9.3,29.03,NNE,22,11.5,11.5,50,0.00,CLR,,0.16,WeatherDisplay:10.37,2013-03-01 21:57:00,
2013-03-01 16:58:00,25.3,8.8,29.03,NNE,22,11.5,11.5,49,0.00,CLR,,0.16,WeatherDisplay:10.37,2013-03-01 21:58:00,
2013-03-01 16:59:00,25.3,8.8,29.03,NNE,22,11.5,11.5,49,0.00,CLR,,0.16,WeatherDisplay:10.37,2013-03-01 21:59:00,
2013-03-01 17:02:00,25.3,8.8,29.03,NNE,22,10.4,10.4,49,0.00,CLR,,0.16,WeatherDisplay:10.37,2013-03-01 22:02:00,
2013-03-01 17:03:00,25.3,8.8,29.03,NNE,22,10.4,10.4,49,0.00,CLR,,0.16,WeatherDisplay:10.37,2013-03-01 22:03:00,
2013-03-01 17:04:00,25.3,8.8,29.03,NNE,22,10.4,10.4,49,0.00,CLR,,0.16,WeatherDisplay:10.37,2013-03-01 22:04:00,
2013-03-01 17:08:00,25.5,9.0,29.03,NNE,22,10.5,10.5,49,0.00,CLR,,0.16,WeatherDisplay:10.37,2013-03-01 22:08:00,
2013-03-01 17:09:00,25.3,8.8,29.03,NNE,22,11.5,11.5,49,0.00,CLR,,0.16,WeatherDisplay:10.37,2013-03-01 22:09:00,
2013-03-01 17:13:00,25.5,9.0,29.03,NNE,22,12.7,12.7,49,0.00,CLR,,0.16,WeatherDisplay:10.37,2013-03-01 22:13:00,
2013-03-01 17:14:00,25.5,9.0,29.03,NNE,22,12.7,12.7,49,0.00,CLR,,0.16,WeatherDisplay:10.37,2013-03-01 22:14:00,
2013-03-01 17:18:00,25.3,8.8,29.03,NE,45,17.3,17.3,49,0.00,CLR,,0.16,WeatherDisplay:10.37,2013-03-01 22:18:00,
2013-03-01 17:19:00,25.3,8.8,29.03,NNE,22,16.1,16.1,49,0.00,CLR,,0.16,WeatherDisplay:10.37,2013-03-01 22:19:00,
2013-03-01 17:23:00,25.3,8.4,29.03,NNE,22,11.5,11.5,48,0.00,CLR,,0.16,WeatherDisplay:10.37,2013-03-01 22:23:00,
2013-03-01 17:24:00,25.3,8.4,29.03,NNE,22,11.5,11.5,48,0.00,CLR,,0.16,WeatherDisplay:10.37,2013-03-01 22:24:00,
2013-03-01 17:28:00,25.3,8.4,29.03,NNE,22,12.3,12.3,48,0.00,CLR,,0.16,WeatherDisplay:10.37,2013-03-01 22:28:00,
2013-03-01 17:29:00,25.3,8.4,29.03,NNE,22,12.7,12.7,48,0.00,CLR,,0.16,WeatherDisplay:10.37,2013-03-01 22:29:00,
2013-03-01 17:33:00,25.3,8.4,29.03,North,0,9.2,9.2,48,0.00,CLR,,0.16,WeatherDisplay:10.37,2013-03-01 22:33:00,
2013-03-01 17:34:00,25.3,8.4,29.03,NNE,22,13.2,13.2,48,0.00,CLR,,0.16,WeatherDisplay:10.37,2013-03-01 22:34:00,
2013-03-01 17:38:00,25.3,8.4,29.03,NNE,22,10.4,10.4,48,0.00,CLR,,0.16,WeatherDisplay:10.37,2013-03-01 22:38:00,
2013-03-01 17:39:00,25.3,8.4,29.03,NNE,22,10.4,10.4,48,0.00,CLR,,0.16,WeatherDisplay:10.37,2013-03-01 22:39:00,
2013-03-01 17:40:00,25.3,8.8,29.03,NNE,22,8.1,8.1,49,0.00,CLR,,0.16,WeatherDisplay:10.37,2013-03-01 22:40:00,
2013-03-01 17:43:00,25.3,8.8,29.03,NNE,22,17.3,17.3,49,0.00,CLR,,0.16,WeatherDisplay:10.37,2013-03-01 22:43:00,
2013-03-01 17:44:00,25.3,8.8,29.03,NNE,22,17.3,17.3,49,0.00,CLR,,0.16,WeatherDisplay:10.37,2013-03-01 22:44:00,
2013-03-01 17:45:00,25.3,8.8,29.03,NNE,22,15.2,15.2,49,0.00,CLR,,0.16,WeatherDisplay:10.37,2013-03-01 22:45:00,
2013-03-01 17:48:00,25.3,8.8,29.03,NNE,22,7.6,7.6,49,0.00,CLR,,0.16,WeatherDisplay:10.37,2013-03-01 22:48:00,
2013-03-01 17:49:00,25.3,8.8,29.03,NNE,22,8.1,8.1,49,0.00,CLR,,0.16,WeatherDisplay:10.37,2013-03-01 22:49:00,
2013-03-01 17:50:00,25.3,8.8,29.03,NNE,22,8.7,8.7,49,0.00,CLR,,0.16,WeatherDisplay:10.37,2013-03-01 22:50:00,
2013-03-01 17:53:00,25.3,8.8,29.03,NNE,22,16.1,16.1,49,0.00,CLR,,0.16,WeatherDisplay:10.37,2013-03-01 22:53:00,
2013-03-01 17:54:00,25.3,8.8,29.03,NNE,22,16.1,16.1,49,0.00,CLR,,0.16,WeatherDisplay:10.37,2013-03-01 22:54:00,
2013-03-01 17:55:00,25.3,8.8,29.03,NNE,22,16.1,16.1,49,0.00,CLR,,0.16,WeatherDisplay:10.37,2013-03-01 22:55:00,
2013-03-01 17:58:00,25.3,8.8,29.03,NNE,22,11.5,11.5,49,0.00,CLR,,0.16,WeatherDisplay:10.37,2013-03-01 22:58:00,
2013-03-01 17:59:00,25.3,8.8,29.03,North,0,10.4,10.4,49,0.00,CLR,,0.16,WeatherDisplay:10.37,2013-03-01 22:59:00,
2013-03-01 18:00:00,25.3,8.8,29.03,NNE,22,10.4,10.4,49,0.00,CLR,,0.16,WeatherDisplay:10.37,2013-03-01 23:00:00,
2013-03-01 18:03:00,25.3,8.8,29.03,NNE,22,11.5,11.5,49,0.00,CLR,,0.16,WeatherDisplay:10.37,2013-03-01 23:03:00,
2013-03-01 18:05:00,25.2,8.7,29.03,NNE,22,13.8,13.8,49,0.00,CLR,,0.16,WeatherDisplay:10.37,2013-03-01 23:05:00,
2013-03-01 18:06:00,25.2,8.7,29.06,NNE,22,14.0,14.0,49,0.00,CLR,,0.16,WeatherDisplay:10.37,2013-03-01 23:06:00,
2013-03-01 18:09:00,25.2,8.7,29.06,NNE,22,13.8,13.8,49,0.00,CLR,,0.16,WeatherDisplay:10.37,2013-03-01 23:09:00,
2013-03-01 18:10:00,25.2,8.7,29.06,NNE,22,12.1,12.1,49,0.00,CLR,,0.16,WeatherDisplay:10.37,2013-03-01 23:10:00,
2013-03-01 18:11:00,25.2,8.7,29.06,NNE,22,12.3,12.3,49,0.00,CLR,,0.16,WeatherDisplay:10.37,2013-03-01 23:11:00,
2013-03-01 18:14:00,25.2,8.7,29.06,NNE,22,15.0,15.0,49,0.00,CLR,,0.16,WeatherDisplay:10.37,2013-03-01 23:14:00,
2013-03-01 18:15:00,25.2,8.7,29.06,NNE,22,15.0,15.0,49,0.00,CLR,,0.16,WeatherDisplay:10.37,2013-03-01 23:15:00,
2013-03-01 18:16:00,25.2,8.7,29.06,NNE,22,15.0,15.0,49,0.00,CLR,,0.16,WeatherDisplay:10.37,2013-03-01 23:16:00,
2013-03-01 18:19:00,25.2,8.7,29.06,NNE,22,10.4,10.4,49,0.00,CLR,,0.16,WeatherDisplay:10.37,2013-03-01 23:19:00,
2013-03-01 18:20:00,25.2,8.7,29.06,NNE,22,10.9,10.9,49,0.00,CLR,,0.16,WeatherDisplay:10.37,2013-03-01 23:20:00,
2013-03-01 18:21:00,25.2,8.7,29.06,NNE,22,12.7,12.7,49,0.00,CLR,,0.16,WeatherDisplay:10.37,2013-03-01 23:21:00,
2013-03-01 18:24:00,25.0,8.5,29.06,NNE,22,9.2,9.2,49,0.00,CLR,,0.16,WeatherDisplay:10.37,2013-03-01 23:24:00,
2013-03-01 18:25:00,25.0,8.5,29.06,NNE,22,11.5,11.5,49,0.00,CLR,,0.16,WeatherDisplay:10.37,2013-03-01 23:25:00,
2013-03-01 18:27:00,25.0,8.5,29.06,NNE,22,10.4,10.4,49,0.00,CLR,,0.16,WeatherDisplay:10.37,2013-03-01 23:27:00,
2013-03-01 18:29:00,25.0,8.5,29.06,NNE,22,10.4,10.4,49,0.00,CLR,,0.16,WeatherDisplay:10.37,2013-03-01 23:29:00,
2013-03-01 18:30:00,25.0,8.5,29.06,North,0,12.8,12.8,49,0.00,CLR,,0.16,WeatherDisplay:10.37,2013-03-01 23:30:00,
2013-03-01 18:31:00,25.0,8.5,29.06,NNE,22,13.8,13.8,49,0.00,CLR,,0.16,WeatherDisplay:10.37,2013-03-01 23:31:00,
2013-03-01 18:32:00,25.0,8.5,29.06,NNE,22,12.7,12.7,49,0.00,CLR,,0.16,WeatherDisplay:10.37,2013-03-01 23:32:00,
2013-03-01 18:34:00,25.0,8.5,29.06,NNE,22,12.7,12.7,49,0.00,CLR,,0.16,WeatherDisplay:10.37,2013-03-01 23:34:00,
2013-03-01 18:35:00,25.0,8.5,29.06,NNE,22,10.2,10.2,49,0.00,CLR,,0.16,WeatherDisplay:10.37,2013-03-01 23:35:00,
2013-03-01 18:36:00,25.0,8.5,29.06,NNW,338,8.1,8.1,49,0.00,CLR,,0.16,WeatherDisplay:10.37,2013-03-01 23:36:00,
2013-03-01 18:37:00,25.0,8.5,29.06,NNE,22,10.2,10.2,49,0.00,CLR,,0.16,WeatherDisplay:10.37,2013-03-01 23:37:00,
2013-03-01 18:39:00,25.0,8.5,29.06,NNE,22,10.4,10.4,49,0.00,CLR,,0.16,WeatherDisplay:10.37,2013-03-01 23:39:00,
2013-03-01 18:40:00,25.0,8.9,29.06,NNE,22,8.1,8.1,50,0.00,CLR,,0.16,WeatherDisplay:10.37,2013-03-01 23:40:00,
2013-03-01 18:41:00,25.0,8.9,29.06,North,0,8.1,8.1,50,0.00,CLR,,0.16,WeatherDisplay:10.37,2013-03-01 23:41:00,
2013-03-01 18:42:00,25.0,8.9,29.06,NNE,22,13.8,13.8,50,0.00,CLR,,0.16,WeatherDisplay:10.37,2013-03-01 23:42:00,
2013-03-01 18:44:00,25.0,8.9,29.06,NNE,22,10.4,10.4,50,0.00,CLR,,0.16,WeatherDisplay:10.37,2013-03-01 23:44:00,
2013-03-01 18:45:00,25.0,8.9,29.06,NNE,22,10.4,10.4,50,0.00,CLR,,0.16,WeatherDisplay:10.37,2013-03-01 23:45:00,
2013-03-01 18:46:00,25.0,8.9,29.06,NNE,22,10.4,10.4,50,0.00,CLR,,0.16,WeatherDisplay:10.37,2013-03-01 23:46:00,
2013-03-01 18:47:00,25.0,8.9,29.06,NNE,22,9.2,9.2,50,0.00,CLR,,0.16,WeatherDisplay:10.37,2013-03-01 23:47:00,
2013-03-01 18:49:00,25.0,8.9,29.06,NE,45,10.5,10.5,50,0.00,CLR,,0.16,WeatherDisplay:10.37,2013-03-01 23:49:00,
2013-03-01 18:50:00,25.0,8.9,29.06,NNE,22,11.5,11.5,50,0.00,CLR,,0.16,WeatherDisplay:10.37,2013-03-01 23:50:00,
2013-03-01 18:51:00,25.0,8.9,29.06,NNE,22,11.5,11.5,50,0.00,CLR,,0.16,WeatherDisplay:10.37,2013-03-01 23:51:00,
2013-03-01 18:53:00,25.0,8.9,29.06,NNW,338,11.5,11.5,50,0.00,CLR,,0.16,WeatherDisplay:10.37,2013-03-01 23:53:00,
2013-03-01 18:54:00,25.0,8.9,29.06,NNE,22,8.1,8.1,50,0.00,CLR,,0.16,WeatherDisplay:10.37,2013-03-01 23:54:00,
2013-03-01 18:55:00,24.8,9.2,29.06,NNE,22,6.0,6.0,51,0.00,CLR,,0.16,WeatherDisplay:10.37,2013-03-01 23:55:00,
2013-03-01 18:56:00,25.0,8.9,29.06,NNE,22,6.9,6.9,50,0.00,CLR,,0.16,WeatherDisplay:10.37,2013-03-01 23:56:00,
2013-03-01 18:58:00,25.0,8.9,29.06,NNE,22,11.5,11.5,50,0.00,CLR,,0.16,WeatherDisplay:10.37,2013-03-01 23:58:00,
2013-03-01 18:59:00,25.0,8.9,29.06,NNE,22,9.2,9.2,50,0.00,CLR,,0.16,WeatherDisplay:10.37,2013-03-01 23:59:00,
2013-03-01 19:00:00,25.0,8.9,29.06,NNE,22,12.1,12.1,50,0.00,CLR,,0.16,WeatherDisplay:10.37,2013-03-02 00:00:00,
2013-03-01 19:01:00,24.8,9.2,29.06,NNE,22,11.5,11.5,51,0.00,CLR,,0.16,WeatherDisplay:10.37,2013-03-02 00:01:00,
2013-03-01 19:03:00,24.8,9.2,29.06,NNE,22,9.8,9.8,51,0.00,CLR,,0.16,WeatherDisplay:10.37,2013-03-02 00:03:00,
2013-03-01 19:05:00,24.8,9.2,29.06,NNE,22,12.7,12.7,51,0.00,CLR,,0.16,WeatherDisplay:10.37,2013-03-02 00:05:00,
2013-03-01 19:06:00,25.0,9.4,29.06,NNE,22,12.7,12.7,51,0.00,CLR,,0.16,WeatherDisplay:10.37,2013-03-02 00:06:00,
2013-03-01 19:08:00,24.8,9.2,29.06,NNE,22,12.7,12.7,51,0.00,CLR,,0.16,WeatherDisplay:10.37,2013-03-02 00:08:00,
2013-03-01 19:10:00,24.8,9.2,29.06,NNE,22,12.7,12.7,51,0.00,CLR,,0.16,WeatherDisplay:10.37,2013-03-02 00:10:00,
2013-03-01 19:11:00,24.8,9.2,29.06,NNE,22,13.7,13.7,51,0.00,CLR,,0.16,WeatherDisplay:10.37,2013-03-02 00:11:00,
2013-03-01 19:13:00,24.8,9.2,29.06,North,0,13.8,13.8,51,0.00,CLR,,0.16,WeatherDisplay:10.37,2013-03-02 00:13:00,
2013-03-01 19:15:00,24.8,9.2,29.06,NNE,22,8.7,8.7,51,0.00,CLR,,0.16,WeatherDisplay:10.37,2013-03-02 00:15:00,
2013-03-01 19:16:00,24.8,9.2,29.06,NNE,22,9.2,9.2,51,0.00,CLR,,0.16,WeatherDisplay:10.37,2013-03-02 00:16:00,
2013-03-01 19:18:00,24.8,9.2,29.06,NNE,22,13.0,13.0,51,0.00,CLR,,0.16,WeatherDisplay:10.37,2013-03-02 00:18:00,
2013-03-01 19:20:00,24.8,9.2,29.06,NNE,22,12.7,12.7,51,0.00,CLR,,0.16,WeatherDisplay:10.37,2013-03-02 00:20:00,
2013-03-01 19:21:00,24.8,9.6,29.06,NNE,22,9.2,9.2,52,0.00,CLR,,0.16,WeatherDisplay:10.37,2013-03-02 00:21:00,
2013-03-01 19:23:00,24.8,9.6,29.06,NNE,22,12.7,12.7,52,0.00,CLR,,0.16,WeatherDisplay:10.37,2013-03-02 00:23:00,
2013-03-01 19:25:00,24.8,9.6,29.06,NNE,22,12.7,12.7,52,0.00,CLR,,0.16,WeatherDisplay:10.37,2013-03-02 00:25:00,
2013-03-01 19:26:00,24.6,9.5,29.06,NNE,22,12.7,12.7,52,0.00,CLR,,0.16,WeatherDisplay:10.37,2013-03-02 00:26:00,
2013-03-01 19:29:00,24.6,9.5,29.06,NE,45,8.1,8.1,52,0.00,CLR,,0.16,WeatherDisplay:10.37,2013-03-02 00:29:00,
2013-03-01 19:30:00,24.6,9.5,29.06,NNE,22,9.8,9.8,52,0.00,CLR,,0.16,WeatherDisplay:10.37,2013-03-02 00:30:00,
2013-03-01 19:31:00,24.6,9.5,29.06,NNE,22,12.7,12.7,52,0.00,CLR,,0.16,WeatherDisplay:10.37,2013-03-02 00:31:00,
2013-03-01 19:34:00,24.6,9.5,29.06,NNE,22,10.7,10.7,52,0.00,CLR,,0.16,WeatherDisplay:10.37,2013-03-02 00:34:00,
2013-03-01 19:35:00,24.6,9.5,29.06,NNE,22,10.4,10.4,52,0.00,CLR,,0.16,WeatherDisplay:10.37,2013-03-02 00:35:00,
2013-03-01 19:36:00,24.6,9.5,29.06,NNE,22,10.4,10.4,52,0.00,CLR,,0.16,WeatherDisplay:10.37,2013-03-02 00:36:00,
2013-03-01 19:39:00,24.6,9.5,29.06,NNE,22,10.4,10.5,52,0.00,CLR,,0.16,WeatherDisplay:10.37,2013-03-02 00:39:00,
2013-03-01 19:40:00,24.6,9.5,29.06,NNE,22,10.4,10.4,52,0.00,CLR,,0.16,WeatherDisplay:10.37,2013-03-02 00:40:00,
2013-03-01 19:41:00,24.6,9.5,29.06,NNE,22,10.4,10.4,52,0.00,CLR,,0.16,WeatherDisplay:10.37,2013-03-02 00:41:00,
2013-03-01 19:44:00,24.6,9.5,29.06,North,0,10.4,10.4,52,0.00,CLR,,0.16,WeatherDisplay:10.37,2013-03-02 00:44:00,
2013-03-01 19:45:00,24.6,9.5,29.06,NNE,22,9.2,9.2,52,0.00,CLR,,0.16,WeatherDisplay:10.37,2013-03-02 00:45:00,
2013-03-01 19:46:00,24.6,9.5,29.06,NNE,22,9.2,9.2,52,0.00,CLR,,0.16,WeatherDisplay:10.37,2013-03-02 00:46:00,
2013-03-01 19:47:00,24.6,9.5,29.06,NNE,22,9.7,9.7,52,0.00,CLR,,0.16,WeatherDisplay:10.37,2013-03-02 00:47:00,
2013-03-01 19:49:00,24.8,9.6,29.06,NNE,22,10.4,10.4,52,0.00,CLR,,0.16,WeatherDisplay:10.37,2013-03-02 00:49:00,
2013-03-01 19:50:00,24.8,9.6,29.06,NNE,22,9.2,9.2,52,0.00,CLR,,0.16,WeatherDisplay:10.37,2013-03-02 00:50:00,
2013-03-01 19:51:00,24.8,9.6,29.06,NNE,22,9.2,9.2,52,0.00,CLR,,0.16,WeatherDisplay:10.37,2013-03-02 00:51:00,
2013-03-01 19:52:00,24.6,9.5,29.06,NNE,22,8.1,8.1,52,0.00,CLR,,0.16,WeatherDisplay:10.37,2013-03-02 00:52:00,
2013-03-01 19:54:00,24.6,9.5,29.06,NNE,22,12.5,12.5,52,0.00,CLR,,0.16,WeatherDisplay:10.37,2013-03-02 00:54:00,
2013-03-01 19:55:00,24.6,9.5,29.06,NNE,22,12.7,12.7,52,0.00,CLR,,0.16,WeatherDisplay:10.37,2013-03-02 00:55:00,
2013-03-01 19:56:00,24.6,9.5,29.06,NNE,22,12.7,12.7,52,0.00,CLR,,0.16,WeatherDisplay:10.37,2013-03-02 00:56:00,
2013-03-01 19:57:00,24.6,9.5,29.06,NNE,22,13.8,13.8,52,0.00,CLR,,0.16,WeatherDisplay:10.37,2013-03-02 00:57:00,
2013-03-01 19:59:00,24.6,9.5,29.06,NE,45,15.0,15.0,52,0.00,CLR,,0.16,WeatherDisplay:10.37,2013-03-02 00:59:00,
2013-03-01 20:01:00,24.6,9.5,29.06,NNE,22,15.0,15.0,52,0.00,CLR,,0.16,WeatherDisplay:10.37,2013-03-02 01:01:00,
2013-03-01 20:02:00,24.6,9.5,29.06,NNE,22,12.5,12.5,52,0.00,CLR,,0.16,WeatherDisplay:10.37,2013-03-02 01:02:00,
2013-03-01 20:04:00,24.6,9.5,29.06,NNE,22,12.7,12.7,52,0.00,CLR,,0.16,WeatherDisplay:10.37,2013-03-02 01:04:00,
2013-03-01 20:06:00,24.6,9.5,29.06,NNE,22,12.7,12.7,52,0.00,CLR,,0.16,WeatherDisplay:10.37,2013-03-02 01:06:00,
2013-03-01 20:07:00,24.6,9.5,29.06,NNE,22,13.8,13.8,52,0.00,CLR,,0.16,WeatherDisplay:10.37,2013-03-02 01:07:00,
2013-03-01 20:09:00,24.6,9.5,29.06,NNE,22,13.0,13.0,52,0.00,CLR,,0.16,WeatherDisplay:10.37,2013-03-02 01:09:00,
2013-03-01 20:11:00,24.4,9.3,29.06,NNE,22,15.0,15.0,52,0.00,CLR,,0.16,WeatherDisplay:10.37,2013-03-02 01:11:00,
2013-03-01 20:12:00,24.4,9.3,29.06,NNE,22,12.7,12.7,52,0.00,CLR,,0.16,WeatherDisplay:10.37,2013-03-02 01:12:00,
2013-03-01 20:13:00,24.4,9.3,29.06,NNE,22,12.7,12.7,52,0.00,CLR,,0.16,WeatherDisplay:10.37,2013-03-02 01:13:00,
2013-03-01 20:14:00,24.4,9.3,29.06,NNE,22,15.0,15.0,52,0.00,CLR,,0.16,WeatherDisplay:10.37,2013-03-02 01:14:00,
2013-03-01 20:16:00,24.4,9.3,29.06,NNW,338,14.0,14.0,52,0.00,CLR,,0.16,WeatherDisplay:10.37,2013-03-02 01:16:00,
2013-03-01 20:17:00,24.4,9.3,29.06,NNE,22,15.0,15.0,52,0.00,CLR,,0.16,WeatherDisplay:10.37,2013-03-02 01:17:00,
2013-03-01 20:18:00,24.4,9.3,29.06,NNE,22,15.0,15.0,52,0.00,CLR,,0.16,WeatherDisplay:10.37,2013-03-02 01:18:00,
2013-03-01 20:20:00,24.4,9.3,29.06,NNE,22,21.9,21.9,52,0.00,CLR,,0.16,WeatherDisplay:10.37,2013-03-02 01:20:00,
2013-03-01 20:22:00,24.4,9.3,29.06,NNE,22,15.0,15.0,52,0.00,CLR,,0.16,WeatherDisplay:10.37,2013-03-02 01:22:00,
2013-03-01 20:23:00,24.4,9.3,29.06,NNE,22,13.8,13.8,52,0.00,CLR,,0.16,WeatherDisplay:10.37,2013-03-02 01:23:00,
2013-03-01 20:25:00,24.4,9.3,29.06,NNE,22,15.4,15.4,52,0.00,CLR,,0.16,WeatherDisplay:10.37,2013-03-02 01:25:00,
2013-03-01 20:27:00,24.4,9.3,29.06,NNE,22,10.4,10.4,52,0.00,CLR,,0.16,WeatherDisplay:10.37,2013-03-02 01:27:00,
2013-03-01 20:28:00,24.4,9.3,29.06,NNE,22,10.4,10.4,52,0.00,CLR,,0.16,WeatherDisplay:10.37,2013-03-02 01:28:00,
2013-03-01 20:30:00,24.4,9.3,29.06,NNE,22,17.3,17.3,52,0.00,CLR,,0.16,WeatherDisplay:10.37,2013-03-02 01:30:00,
2013-03-01 20:32:00,24.4,9.3,29.06,NNE,22,10.4,10.4,52,0.00,CLR,,0.16,WeatherDisplay:10.37,2013-03-02 01:32:00,
2013-03-01 20:33:00,24.4,9.3,29.06,NNE,22,10.4,10.4,52,0.00,CLR,,0.16,WeatherDisplay:10.37,2013-03-02 01:33:00,
2013-03-01 20:35:00,24.4,9.3,29.06,NNE,22,11.5,11.5,52,0.00,CLR,,0.16,WeatherDisplay:10.37,2013-03-02 01:35:00,
2013-03-01 20:37:00,24.4,9.3,29.06,NNE,22,10.4,10.4,52,0.00,CLR,,0.16,WeatherDisplay:10.37,2013-03-02 01:37:00,
2013-03-01 20:38:00,24.4,9.3,29.06,NNE,22,10.4,10.4,52,0.00,CLR,,0.16,WeatherDisplay:10.37,2013-03-02 01:38:00,
2013-03-01 20:40:00,24.4,9.3,29.06,NNE,22,13.8,13.8,52,0.00,CLR,,0.16,WeatherDisplay:10.37,2013-03-02 01:40:00,
2013-03-01 20:42:00,24.3,9.1,29.06,NNE,22,12.7,12.7,52,0.00,CLR,,0.16,WeatherDisplay:10.37,2013-03-02 01:42:00,
2013-03-01 20:43:00,24.4,9.3,29.06,NNE,22,12.5,12.5,52,0.00,CLR,,0.16,WeatherDisplay:10.37,2013-03-02 01:43:00,
2013-03-01 20:45:00,24.4,9.3,29.06,NNE,22,12.7,12.7,52,0.00,CLR,,0.16,WeatherDisplay:10.37,2013-03-02 01:45:00,
2013-03-01 20:47:00,24.3,9.1,29.06,NNE,22,13.8,13.8,52,0.00,CLR,,0.16,WeatherDisplay:10.37,2013-03-02 01:47:00,
2013-03-01 20:48:00,24.4,9.3,29.06,NNE,22,10.4,10.4,52,0.00,CLR,,0.16,WeatherDisplay:10.37,2013-03-02 01:48:00,
2013-03-01 20:50:00,24.4,9.3,29.06,NNE,22,16.1,16.1,52,0.00,CLR,,0.16,WeatherDisplay:10.37,2013-03-02 01:50:00,
2013-03-01 20:52:00,24.3,9.1,29.09,NNE,22,10.4,10.4,52,0.00,CLR,,0.16,WeatherDisplay:10.37,2013-03-02 01:52:00,
2013-03-01 20:53:00,24.3,9.1,29.09,NNE,22,10.4,10.4,52,0.00,CLR,,0.16,WeatherDisplay:10.37,2013-03-02 01:53:00,
2013-03-01 20:54:00,24.3,9.1,29.09,NNE,22,10.4,10.4,52,0.00,CLR,,0.16,WeatherDisplay:10.37,2013-03-02 01:54:00,
2013-03-01 20:55:00,24.3,9.1,29.09,NNE,22,13.8,13.8,52,0.00,CLR,,0.16,WeatherDisplay:10.37,2013-03-02 01:55:00,
2013-03-01 20:58:00,24.3,9.1,29.09,NNE,22,15.0,15.0,52,0.00,CLR,,0.16,WeatherDisplay:10.37,2013-03-02 01:58:00,
2013-03-01 20:59:00,24.3,9.1,29.09,NNE,22,15.0,15.0,52,0.00,CLR,,0.16,WeatherDisplay:10.37,2013-03-02 01:59:00,
2013-03-01 21:00:00,24.3,9.1,29.09,NNE,22,15.0,15.0,52,0.00,CLR,,0.16,WeatherDisplay:10.37,2013-03-02 02:00:00,
2013-03-01 21:03:00,24.1,9.0,29.09,NNE,22,17.3,17.3,52,0.00,CLR,,0.16,WeatherDisplay:10.37,2013-03-02 02:03:00,
2013-03-01 21:04:00,24.1,9.0,29.09,NNE,22,17.3,17.3,52,0.00,CLR,,0.16,WeatherDisplay:10.37,2013-03-02 02:04:00,
2013-03-01 21:05:00,24.1,9.0,29.09,NNE,22,13.8,13.8,52,0.00,CLR,,0.16,WeatherDisplay:10.37,2013-03-02 02:05:00,
2013-03-01 21:08:00,24.3,9.1,29.06,NNE,22,15.2,15.2,52,0.00,CLR,,0.16,WeatherDisplay:10.37,2013-03-02 02:08:00,
2013-03-01 21:09:00,24.3,9.1,29.06,NNE,22,19.6,19.6,52,0.00,CLR,,0.16,WeatherDisplay:10.37,2013-03-02 02:09:00,
2013-03-01 21:10:00,24.3,9.1,29.06,NNE,22,19.6,19.6,52,0.00,CLR,,0.16,WeatherDisplay:10.37,2013-03-02 02:10:00,
2013-03-01 21:13:00,24.1,9.0,29.06,NNE,22,13.8,13.8,52,0.00,CLR,,0.16,WeatherDisplay:10.37,2013-03-02 02:13:00,
2013-03-01 21:14:00,24.1,9.0,29.06,NNE,22,13.8,13.8,52,0.00,CLR,,0.16,WeatherDisplay:10.37,2013-03-02 02:14:00,
2013-03-01 21:15:00,24.1,9.0,29.06,NNE,22,16.1,16.1,52,0.00,CLR,,0.16,WeatherDisplay:10.37,2013-03-02 02:15:00,
2013-03-01 21:18:00,24.1,9.0,29.06,NNE,22,15.0,15.0,52,0.00,CLR,,0.16,WeatherDisplay:10.37,2013-03-02 02:18:00,
2013-03-01 21:19:00,24.1,9.0,29.06,NNE,22,17.3,17.3,52,0.00,CLR,,0.16,WeatherDisplay:10.37,2013-03-02 02:19:00,
2013-03-01 21:20:00,23.9,8.8,29.06,NNE,22,10.4,10.7,52,0.00,CLR,,0.16,WeatherDisplay:10.37,2013-03-02 02:20:00,
2013-03-01 21:23:00,23.9,8.8,29.06,NNE,22,12.7,12.7,52,0.00,CLR,,0.16,WeatherDisplay:10.37,2013-03-02 02:23:00,
2013-03-01 21:24:00,23.9,8.8,29.06,NNE,22,10.4,10.4,52,0.00,CLR,,0.16,WeatherDisplay:10.37,2013-03-02 02:24:00,
2013-03-01 21:25:00,23.9,8.8,29.06,NNE,22,10.9,10.9,52,0.00,CLR,,0.16,WeatherDisplay:10.37,2013-03-02 02:25:00,
2013-03-01 21:28:00,23.9,8.8,29.06,NNE,22,13.8,13.8,52,0.00,CLR,,0.16,WeatherDisplay:10.37,2013-03-02 02:28:00,
2013-03-01 21:29:00,23.9,8.8,29.06,NNE,22,12.7,12.7,52,0.00,CLR,,0.16,WeatherDisplay:10.37,2013-03-02 02:29:00,
2013-03-01 21:31:00,24.1,9.0,29.06,NNE,22,9.2,9.2,52,0.00,CLR,,0.16,WeatherDisplay:10.37,2013-03-02 02:31:00,
2013-03-01 21:33:00,24.1,9.0,29.06,NNE,22,15.0,15.0,52,0.00,CLR,,0.16,WeatherDisplay:10.37,2013-03-02 02:33:00,
2013-03-01 21:34:00,23.9,8.8,29.06,NNE,22,10.4,10.4,52,0.00,CLR,,0.16,WeatherDisplay:10.37,2013-03-02 02:34:00,
2013-03-01 21:35:00,23.9,8.8,29.06,NNE,22,16.3,16.3,52,0.00,CLR,,0.16,WeatherDisplay:10.37,2013-03-02 02:35:00,
2013-03-01 21:36:00,23.9,8.8,29.06,NNE,22,16.1,16.1,52,0.00,CLR,,0.16,WeatherDisplay:10.37,2013-03-02 02:36:00,
2013-03-01 21:38:00,23.9,8.8,29.06,North,0,11.5,11.5,52,0.00,CLR,,0.16,WeatherDisplay:10.37,2013-03-02 02:38:00,
2013-03-01 21:39:00,23.9,8.8,29.06,NNE,22,17.3,17.3,52,0.00,CLR,,0.16,WeatherDisplay:10.37,2013-03-02 02:39:00,
2013-03-01 21:40:00,23.9,8.8,29.06,NNE,22,17.3,17.3,52,0.00,CLR,,0.16,WeatherDisplay:10.37,2013-03-02 02:40:00,
2013-03-01 21:41:00,23.9,8.8,29.06,NNE,22,17.3,17.3,52,0.00,CLR,,0.16,WeatherDisplay:10.37,2013-03-02 02:41:00,
2013-03-01 21:43:00,23.9,8.8,29.06,NNE,22,15.4,15.4,52,0.00,CLR,,0.16,WeatherDisplay:10.37,2013-03-02 02:43:00,
2013-03-01 21:44:00,23.9,8.8,29.06,NNE,22,15.0,15.0,52,0.00,CLR,,0.16,WeatherDisplay:10.37,2013-03-02 02:44:00,
2013-03-01 21:45:00,23.9,8.8,29.06,NNE,22,15.0,15.0,52,0.00,CLR,,0.16,WeatherDisplay:10.37,2013-03-02 02:45:00,
2013-03-01 21:46:00,23.9,8.8,29.06,NNE,22,8.5,8.5,52,0.00,CLR,,0.16,WeatherDisplay:10.37,2013-03-02 02:46:00,
2013-03-01 21:48:00,23.9,8.8,29.06,NNE,22,10.7,10.7,52,0.00,CLR,,0.16,WeatherDisplay:10.37,2013-03-02 02:48:00,
2013-03-01 21:49:00,23.9,8.8,29.06,NNE,22,11.5,11.5,52,0.00,CLR,,0.16,WeatherDisplay:10.37,2013-03-02 02:49:00,
2013-03-01 21:50:00,23.9,8.8,29.06,NNE,22,11.5,11.5,52,0.00,CLR,,0.16,WeatherDisplay:10.37,2013-03-02 02:50:00,
2013-03-01 21:51:00,23.9,8.8,29.06,NNE,22,10.5,10.5,52,0.00,CLR,,0.16,WeatherDisplay:10.37,2013-03-02 02:51:00,
2013-03-01 21:53:00,23.9,8.8,29.06,NNE,22,12.8,12.8,52,0.00,CLR,,0.16,WeatherDisplay:10.37,2013-03-02 02:53:00,
2013-03-01 21:54:00,23.9,8.8,29.06,NNE,22,12.7,12.7,52,0.00,CLR,,0.16,WeatherDisplay:10.37,2013-03-02 02:54:00,
2013-03-01 21:55:00,23.9,8.8,29.06,NNE,22,12.7,12.7,52,0.00,CLR,,0.16,WeatherDisplay:10.37,2013-03-02 02:55:00,
2013-03-01 21:56:00,23.9,8.8,29.06,NNE,22,12.7,12.7,52,0.00,CLR,,0.16,WeatherDisplay:10.37,2013-03-02 02:56:00,
2013-03-01 21:58:00,23.9,8.8,29.06,North,0,10.9,10.9,52,0.00,CLR,,0.16,WeatherDisplay:10.37,2013-03-02 02:58:00,
2013-03-01 21:59:00,23.9,8.8,29.06,NNE,22,13.8,13.8,52,0.00,CLR,,0.16,WeatherDisplay:10.37,2013-03-02 02:59:00,
2013-03-01 22:00:00,23.9,8.8,29.06,NNE,22,13.8,13.8,52,0.00,CLR,,0.16,WeatherDisplay:10.37,2013-03-02 03:00:00,
2013-03-01 22:01:00,23.9,8.8,29.06,NNE,22,12.7,12.7,52,0.00,CLR,,0.16,WeatherDisplay:10.37,2013-03-02 03:01:00,
2013-03-01 22:03:00,23.9,8.8,29.06,NNE,22,11.5,11.5,52,0.00,CLR,,0.16,WeatherDisplay:10.37,2013-03-02 03:03:00,
2013-03-01 22:04:00,23.9,8.8,29.06,NNE,22,13.8,13.8,52,0.00,CLR,,0.16,WeatherDisplay:10.37,2013-03-02 03:04:00,
2013-03-01 22:05:00,23.9,8.8,29.06,NNE,22,13.8,13.8,52,0.00,CLR,,0.16,WeatherDisplay:10.37,2013-03-02 03:05:00,
2013-03-01 22:06:00,23.9,8.8,29.06,NNE,22,10.4,10.4,52,0.00,CLR,,0.16,WeatherDisplay:10.37,2013-03-02 03:06:00,
2013-03-01 22:08:00,23.9,8.8,29.06,NNE,22,9.2,9.2,52,0.00,CLR,,0.16,WeatherDisplay:10.37,2013-03-02 03:08:00,
2013-03-01 22:09:00,23.9,8.8,29.06,NNE,22,9.2,9.2,52,0.00,CLR,,0.16,WeatherDisplay:10.37,2013-03-02 03:09:00,
2013-03-01 22:10:00,23.9,8.8,29.06,NNE,22,9.2,9.2,52,0.00,CLR,,0.16,WeatherDisplay:10.37,2013-03-02 03:10:00,
2013-03-01 22:11:00,23.9,8.8,29.06,North,0,11.5,11.5,52,0.00,CLR,,0.16,WeatherDisplay:10.37,2013-03-02 03:11:00,
2013-03-01 22:13:00,23.7,8.6,29.06,NNE,22,11.2,11.2,52,0.00,CLR,,0.16,WeatherDisplay:10.37,2013-03-02 03:13:00,
2013-03-01 22:14:00,23.7,8.6,29.06,NNE,22,12.7,12.7,52,0.00,CLR,,0.16,WeatherDisplay:10.37,2013-03-02 03:14:00,
2013-03-01 22:15:00,23.7,8.6,29.06,North,0,12.7,12.7,52,0.00,CLR,,0.16,WeatherDisplay:10.37,2013-03-02 03:15:00,
2013-03-01 22:17:00,23.7,8.6,29.06,NNE,22,8.5,8.5,52,0.00,CLR,,0.16,WeatherDisplay:10.37,2013-03-02 03:17:00,
2013-03-01 22:18:00,23.7,8.6,29.06,NNE,22,12.7,12.7,52,0.00,CLR,,0.16,WeatherDisplay:10.37,2013-03-02 03:18:00,
2013-03-01 22:19:00,23.7,8.6,29.06,NNE,22,10.4,10.4,52,0.00,CLR,,0.16,WeatherDisplay:10.37,2013-03-02 03:19:00,
2013-03-01 22:20:00,23.7,8.6,29.06,NNE,22,10.4,10.4,52,0.00,CLR,,0.16,WeatherDisplay:10.37,2013-03-02 03:20:00,
2013-03-01 22:22:00,23.7,8.6,29.06,NNE,22,9.2,9.2,52,0.00,CLR,,0.16,WeatherDisplay:10.37,2013-03-02 03:22:00,
2013-03-01 22:23:00,23.7,8.6,29.06,NNE,22,8.1,8.1,52,0.00,CLR,,0.16,WeatherDisplay:10.37,2013-03-02 03:23:00,
2013-03-01 22:25:00,23.7,8.6,29.06,NNE,22,10.2,10.2,52,0.00,CLR,,0.16,WeatherDisplay:10.37,2013-03-02 03:25:00,
2013-03-01 22:27:00,23.7,8.6,29.06,NNE,22,11.5,11.5,52,0.00,CLR,,0.16,WeatherDisplay:10.37,2013-03-02 03:27:00,
2013-03-01 22:28:00,23.7,8.6,29.06,NNE,22,12.1,12.1,52,0.00,CLR,,0.16,WeatherDisplay:10.37,2013-03-02 03:28:00,
2013-03-01 22:30:00,23.7,8.6,29.06,NNE,22,11.5,11.5,52,0.00,CLR,,0.16,WeatherDisplay:10.37,2013-03-02 03:30:00,
2013-03-01 22:32:00,23.7,8.6,29.06,North,0,8.1,8.1,52,0.00,CLR,,0.16,WeatherDisplay:10.37,2013-03-02 03:32:00,
2013-03-01 22:34:00,23.7,8.6,29.06,NNE,22,9.4,9.4,52,0.00,CLR,,0.16,WeatherDisplay:10.37,2013-03-02 03:34:00,
2013-03-01 22:35:00,23.7,8.6,29.06,NNE,22,10.7,10.7,52,0.00,CLR,,0.16,WeatherDisplay:10.37,2013-03-02 03:35:00,
2013-03-01 22:37:00,23.7,8.6,29.06,NNW,338,10.0,10.0,52,0.00,CLR,,0.16,WeatherDisplay:10.37,2013-03-02 03:37:00,
2013-03-01 22:39:00,23.7,8.6,29.06,NNE,22,10.4,10.4,52,0.00,CLR,,0.16,WeatherDisplay:10.37,2013-03-02 03:39:00,
2013-03-01 22:40:00,23.7,8.6,29.06,NNE,22,10.4,10.4,52,0.00,CLR,,0.16,WeatherDisplay:10.37,2013-03-02 03:40:00,
2013-03-01 22:42:00,23.7,8.6,29.06,NNW,338,9.2,9.2,52,0.00,CLR,,0.16,WeatherDisplay:10.37,2013-03-02 03:42:00,
2013-03-01 22:44:00,23.7,8.6,29.06,NNE,22,5.9,5.9,52,0.00,CLR,,0.16,WeatherDisplay:10.37,2013-03-02 03:44:00,
2013-03-01 22:45:00,23.7,8.6,29.06,NNE,22,6.4,6.4,52,0.00,CLR,,0.16,WeatherDisplay:10.37,2013-03-02 03:45:00,
2013-03-01 22:47:00,23.7,8.6,29.06,NNE,22,6.4,6.4,52,0.00,CLR,,0.16,WeatherDisplay:10.37,2013-03-02 03:47:00,
2013-03-01 22:49:00,23.7,8.6,29.06,NNE,22,8.1,8.1,52,0.00,CLR,,0.16,WeatherDisplay:10.37,2013-03-02 03:49:00,
2013-03-01 22:50:00,23.7,8.6,29.06,NNE,22,8.5,8.5,52,0.00,CLR,,0.16,WeatherDisplay:10.37,2013-03-02 03:50:00,
2013-03-01 22:51:00,23.7,8.6,29.03,NNE,22,8.1,8.1,52,0.00,CLR,,0.16,WeatherDisplay:10.37,2013-03-02 03:51:00,
2013-03-01 22:52:00,23.7,8.6,29.03,NNE,22,9.2,9.2,52,0.00,CLR,,0.16,WeatherDisplay:10.37,2013-03-02 03:52:00,
2013-03-01 22:54:00,23.7,8.6,29.03,NNE,22,8.1,8.1,52,0.00,CLR,,0.16,WeatherDisplay:10.37,2013-03-02 03:54:00,
2013-03-01 22:55:00,23.7,8.6,29.03,NNW,338,11.4,11.4,52,0.00,CLR,,0.16,WeatherDisplay:10.37,2013-03-02 03:55:00,
2013-03-01 22:56:00,23.7,8.6,29.03,North,0,11.5,11.5,52,0.00,CLR,,0.16,WeatherDisplay:10.37,2013-03-02 03:56:00,
2013-03-01 22:57:00,23.7,8.2,29.03,NNE,22,10.4,10.4,51,0.00,CLR,,0.16,WeatherDisplay:10.37,2013-03-02 03:57:00,
2013-03-01 22:59:00,23.7,8.2,29.03,NNE,22,10.4,10.4,51,0.00,CLR,,0.16,WeatherDisplay:10.37,2013-03-02 03:59:00,
2013-03-01 23:00:00,23.7,8.2,29.03,NNE,22,10.4,10.4,51,0.00,CLR,,0.16,WeatherDisplay:10.37,2013-03-02 04:00:00,
2013-03-01 23:01:00,23.7,8.2,29.03,NNE,22,8.1,8.1,51,0.00,CLR,,0.16,WeatherDisplay:10.37,2013-03-02 04:01:00,
2013-03-01 23:02:00,23.7,8.6,29.03,NNE,22,8.5,8.5,52,0.00,CLR,,0.16,WeatherDisplay:10.37,2013-03-02 04:02:00,
2013-03-01 23:04:00,23.7,8.6,29.03,North,0,8.1,8.1,52,0.00,CLR,,0.16,WeatherDisplay:10.37,2013-03-02 04:04:00,
2013-03-01 23:05:00,23.7,8.6,29.03,NNE,22,11.4,11.4,52,0.00,CLR,,0.16,WeatherDisplay:10.37,2013-03-02 04:05:00,
2013-03-01 23:06:00,23.7,8.6,29.06,NNE,22,9.7,9.7,52,0.00,CLR,,0.16,WeatherDisplay:10.37,2013-03-02 04:06:00,
2013-03-01 23:08:00,23.7,8.6,29.06,NNW,338,9.2,9.2,52,0.00,CLR,,0.16,WeatherDisplay:10.37,2013-03-02 04:08:00,
2013-03-01 23:09:00,23.7,8.6,29.06,NNE,22,8.7,8.7,52,0.00,CLR,,0.16,WeatherDisplay:10.37,2013-03-02 04:09:00,
2013-03-01 23:10:00,23.7,8.6,29.06,NNE,22,9.2,9.2,52,0.00,CLR,,0.16,WeatherDisplay:10.37,2013-03-02 04:10:00,
2013-03-01 23:11:00,23.7,8.6,29.06,NNE,22,9.2,9.2,52,0.00,CLR,,0.16,WeatherDisplay:10.37,2013-03-02 04:11:00,
2013-03-01 23:13:00,23.7,8.6,29.06,North,0,9.2,9.2,52,0.00,CLR,,0.16,WeatherDisplay:10.37,2013-03-02 04:13:00,
2013-03-01 23:14:00,23.7,8.6,29.06,NNE,22,9.2,9.2,52,0.00,CLR,,0.16,WeatherDisplay:10.37,2013-03-02 04:14:00,
2013-03-01 23:15:00,23.7,8.6,29.06,NNW,338,9.2,9.2,52,0.00,CLR,,0.16,WeatherDisplay:10.37,2013-03-02 04:15:00,
2013-03-01 23:16:00,23.7,8.6,29.06,NNE,22,9.2,9.2,52,0.00,CLR,,0.16,WeatherDisplay:10.37,2013-03-02 04:16:00,
2013-03-01 23:18:00,23.7,8.2,29.06,NNE,22,9.2,9.2,51,0.00,CLR,,0.16,WeatherDisplay:10.37,2013-03-02 04:18:00,
2013-03-01 23:20:00,23.7,8.2,29.06,NNE,22,8.1,8.1,51,0.00,CLR,,0.16,WeatherDisplay:10.37,2013-03-02 04:20:00,
2013-03-01 23:21:00,23.7,8.2,29.06,NNE,22,8.1,8.1,51,0.00,CLR,,0.16,WeatherDisplay:10.37,2013-03-02 04:21:00,
2013-03-01 23:23:00,23.7,8.2,29.06,NNE,22,9.2,9.2,51,0.00,CLR,,0.16,WeatherDisplay:10.37,2013-03-02 04:23:00,
2013-03-01 23:25:00,23.9,8.8,29.06,NNE,15,8.0,11.0,52,0.00,CLR,,0.16,WeatherDisplay:10.37,2013-03-02 04:25:00,
2013-03-01 23:26:00,23.7,8.2,29.06,North,0,10.4,10.4,51,0.00,CLR,,0.16,WeatherDisplay:10.37,2013-03-02 04:26:00,
2013-03-01 23:29:00,23.7,8.2,29.06,NNE,22,10.4,10.4,51,0.00,CLR,,0.16,WeatherDisplay:10.37,2013-03-02 04:29:00,
2013-03-01 23:30:00,23.7,8.2,29.06,NNE,22,8.1,8.1,51,0.00,CLR,,0.16,WeatherDisplay:10.37,2013-03-02 04:30:00,
2013-03-01 23:31:00,23.7,8.2,29.06,NNE,22,8.1,8.1,51,0.00,CLR,,0.16,WeatherDisplay:10.37,2013-03-02 04:31:00,
2013-03-01 23:34:00,23.7,8.2,29.06,NNE,22,10.4,10.4,51,0.00,CLR,,0.16,WeatherDisplay:10.37,2013-03-02 04:34:00,
2013-03-01 23:35:00,23.7,8.2,29.06,North,0,12.7,12.7,51,0.00,CLR,,0.16,WeatherDisplay:10.37,2013-03-02 04:35:00,
2013-03-01 23:36:00,23.7,8.2,29.03,North,0,12.7,12.7,51,0.00,CLR,,0.16,WeatherDisplay:10.37,2013-03-02 04:36:00,
2013-03-01 23:39:00,23.5,8.0,29.03,NNW,338,9.2,9.2,51,0.00,CLR,,0.16,WeatherDisplay:10.37,2013-03-02 04:39:00,
2013-03-01 23:41:00,23.7,8.2,29.03,NNE,22,9.8,9.8,51,0.00,CLR,,0.16,WeatherDisplay:10.37,2013-03-02 04:41:00,
2013-03-01 23:44:00,23.7,8.2,29.03,NNE,22,10.4,10.4,51,0.00,CLR,,0.16,WeatherDisplay:10.37,2013-03-02 04:44:00,
2013-03-01 23:46:00,23.7,8.2,29.03,NNE,22,10.5,10.5,51,0.00,CLR,,0.16,WeatherDisplay:10.37,2013-03-02 04:46:00,
2013-03-01 23:49:00,23.7,8.2,29.03,NNE,22,8.1,8.1,51,0.00,CLR,,0.16,WeatherDisplay:10.37,2013-03-02 04:49:00,
2013-03-01 23:51:00,23.7,8.6,29.03,NNE,22,10.4,10.5,52,0.00,CLR,,0.16,WeatherDisplay:10.37,2013-03-02 04:51:00,
2013-03-01 23:54:00,23.7,8.2,29.03,NNE,22,10.4,10.4,51,0.00,CLR,,0.16,WeatherDisplay:10.37,2013-03-02 04:54:00,
2013-03-01 23:56:00,23.7,8.2,29.03,NNE,22,13.2,13.2,51,0.00,CLR,,0.16,WeatherDisplay:10.37,2013-03-02 04:56:00,
2013-03-01 23:57:00,23.7,8.2,29.03,NNE,22,13.8,13.8,51,0.00,CLR,,0.16,WeatherDisplay:10.37,2013-03-02 04:57:00,
2013-03-01 23:59:00,23.7,8.2,29.03,NNE,22,12.8,12.8,51,0.00,CLR,,0.16,WeatherDisplay:10.37,2013-03-02 04:59:00,